Content
SEND FEEDBACK

Daily
Averages
Monthly
Summary
United States of America

RALEIGH - NC STATE, NORTH CAROLINA


Home > North America > United States > North Carolina
Elevation: 390 feet     Latitude: 35 47N     Longitude: 078 42W

WEATHER
 
SELECT A DAY
Number of Records: 192,829;   Date Range: 1/1/95 - 7/22/14
 
SHARE

PRINT THIS DATA

[ ← Previous Day ]
WEATHER ALMANAC - MARCH 16, 2013
[ Next Day → ]
[ °C ]   °F
Weather ElementAverageHighLow
Temperature62.9 °F77 °F (4:51 pm)46.9 °F (5:51 am)
Dewpoint42.8 °F48.9 °F (11:51 pm)35.1 °F (2:51 am)
Humidity49.6 %66 % (5:51 am)32 % (4:51 pm)
Barometer29.78 in29.86 in (2:51 am)29.67 in (5:51 pm)
Wind Speed11 mph19.6 mph (2:51 pm)
Wind Gust31.1 mph (4:51 pm)
Weather ElementAverage
Visibility10 mi
Wind DirectionSW (223.2 °)

Weather ElementTotal
Precipitation---
Heating Degree Days3.1 (Base 65)
Growing Degree Days12 (Base 50)
Averaged from 22 records on March 16, 2013
WEATHER CONDITIONS BREAKOUT
WIND DIRECTION BREAKOUT
WEATHER BY HOUR - MARCH 16, 2013
[ °C ]   °F
Local TimeTemperatureDewpointHumidityBarometerVisibilityWind DirectionWind SpeedGust SpeedPrecipitationEventsConditions
2:51 AM50.0 °F35.1 °F57 %29.86 in10.0 miSW (220°)6.9 mphScattered Clouds
3:51 AM50.0 °F35.6 °F58 %29.84 in10.0 miSW (220°)8.1 mphMostly Cloudy
4:51 AM48.0 °F36.0 °F63 %29.83 in10.0 miSW (220°)8.1 mphScattered Clouds
5:51 AM46.9 °F36.0 °F66 %29.83 in10.0 miSW (220°)6.9 mphScattered Clouds
6:51 AM48.9 °F37.9 °F66 %29.84 in10.0 miSW (220°)6.9 mphMostly Cloudy
7:51 AM52.0 °F39.0 °F61 %29.84 in10.0 miSW (220°)8.1 mphOvercast
8:51 AM55.4 °F41.0 °F58 %29.83 in10.0 miSW (230°)10.4 mphOvercast
9:51 AM57.0 °F42.1 °F57 %29.84 in10.0 miSW (230°)10.4 mphOvercast
10:51 AM59.0 °F44.1 °F58 %29.82 in10.0 miSW (230°)13.8 mphOvercast
11:51 AM63.0 °F45.0 °F52 %29.80 in10.0 miSW (220°)15.0 mphMostly Cloudy
12:51 PM68.0 °F46.0 °F45 %29.78 in10.0 miSW (220°)17.3 mphMostly Cloudy
1:51 PM73.0 °F46.0 °F38 %29.75 in10.0 miWSW (240°)16.1 mph27.6 mphMostly Cloudy
2:51 PM75.0 °F46.0 °F36 %29.72 in10.0 miSW (230°)19.6 mph28.8 mphMostly Cloudy
3:51 PM75.9 °F46.9 °F36 %29.69 in10.0 miSW (230°)16.1 mph24.2 mphOvercast
4:51 PM77.0 °F45.0 °F32 %29.68 in10.0 miWSW (240°)17.3 mph31.1 mphOvercast
5:51 PM75.2 °F44.6 °F34 %29.67 in10.0 miWSW (240°)18.4 mph28.8 mphOvercast
6:51 PM73.0 °F44.1 °F35 %29.67 in10.0 miWSW (240°)15.0 mph25.3 mphOvercast
7:51 PM72.0 °F44.1 °F37 %29.69 in10.0 miWSW (240°)10.4 mphOvercast
8:51 PM71.1 °F44.1 °F38 %29.77 in10.0 miNW (310°)5.8 mphOvercast
9:51 PM69.1 °F46.0 °F44 %29.81 in10.0 miCalmOvercast
10:51 PM63.0 °F48.0 °F58 %29.83 in10.0 miWSW (250°)5.8 mphScattered Clouds
11:51 PM62.1 °F48.9 °F62 %29.83 in10.0 miWSW (240°)5.8 mphMostly Cloudy
Hourly data recorded from KRDU, located miles away from Raleigh - NC State, North Carolina







STORIES FROM OUR PARTNERS